Tracking 19280 objects as of 13-Nov-2018
HD Live streaming from Space Station
objects crossing your sky now

COSMOS 1541

Track COSMOS 1541 now!
COSMOS 1541 is classified as:


NORAD ID: 14790
Int'l Code: 1984-024A
Perigee: 8,119.2 km
Apogee: 32,248.4 km
Inclination: 71.7 °
Period: 717.8 minutes
Semi major axis: 26554 km
RCS: 7.9433 m2 (large)
Launch date: March 6, 1984
Source: Commonwealth of Independent States (former USSR) (CIS)
Launch site: PLESETSK MISSILE AND SPACE COMPLEX (PKMTR)
aabbcc
Your satellite tracking list
Your tracking list is empty




NASA's NSSDC Master Catalog

Two Line Element Set (TLE):
1 14790U 84024A   18317.34736036  .00000081  00000-0  00000+0 0  9999
2 14790  71.7370 253.7492 4543289  65.5693 147.8271  2.00626516226322
Source of the keplerian elements: AFSPC